East Milton, MA

1:33 PM EST on February 20, 2018 (GMT -0500)
East Milton

Weather History for KMQE - September, 2013

Change the Weather History Date:

Thursday, September 12, 2013

  Actual Average (KOWD) Record (KOWD)
Temperature  
Mean Temperature 76 °F -  
Max Temperature 84 °F 73 °F 91 °F (2005)
Min Temperature 66 °F 50 °F 32 °F (2006)
Cooling Degree Days 11    
Growing Degree Days 26 (Base 50)    
Moisture  
Dew Point 69 °F    
Average Humidity 86    
Maximum Humidity 100    
Minimum Humidity 65    
Precipitation  
Precipitation 0.42 in - - ()
Sea Level Pressure  
Sea Level Pressure 29.86 in    
Wind  
Wind Speed 12 mph (South)    
Max Wind Speed 23 mph    
Max Gust Speed 32 mph    
Averages and records for this station are not official NWS values.
T = Trace of Precipitation, MM = Missing Value Source: NWS Daily Summary

Daily Weather History Graph

Daily Weather History Graph

Search for Another Location

Airport or City:

Trip Planner

Search our weather history database for the weather conditions in past years. The results will help you decide how hot, cold, wet, or windy it might be!

Date:

Astronomy

Sep. 12, 2013 Rise Set
Actual Time 6:21 AM EDT 6:58 PM EDT
Civil Twilight 5:53 AM EDT 7:27 PM EDT
Nautical Twilight 5:19 AM EDT 8:00 PM EDT
Astronomical Twilight 4:45 AM EDT 8:34 PM EDT
Moon 1:53 PM EDT (9/12) 11:44 PM EDT (9/12)
Length of Visible Light 13h 33m
Length of Day
12h 37m
Waxing Crescent, 50% of the Moon is Illuminated
Sep 12
Waxing Crescent
Sep 12
First Quarter
Sep 19
Full
Sep 26
Last Quarter
Oct 4
New

Hourly Weather History & Observations

Time (EDT) Temp. Heat Index Dew Point Humidity Pressure Visibility Wind Dir Wind Speed Gust Speed Precip Events Conditions
12:54 AM 73.9 °F - 69.1 °F 85% 30.00 in - South 5.8 mph - N/A   Unknown
1:54 AM 72.0 °F - 69.1 °F 91% 29.96 in - South 10.4 mph - N/A   Unknown
2:54 AM 70.0 °F - 69.1 °F 97% 29.96 in - South 10.4 mph - N/A   Unknown
3:54 AM 69.1 °F - 69.1 °F 100% 29.96 in - SSW 10.4 mph - N/A   Unknown
4:54 AM 69.1 °F - 68.0 °F 96% 29.96 in - SSW 12.7 mph - N/A   Unknown
5:54 AM 68.0 °F - 68.0 °F 100% 29.96 in - SSW 12.7 mph - N/A   Unknown
6:54 AM 68.0 °F - 68.0 °F 100% 29.95 in - South 10.4 mph - N/A   Unknown
7:54 AM 69.1 °F - 69.1 °F 100% 29.95 in - South 12.7 mph - N/A   Unknown
8:54 AM 72.0 °F - 70.0 °F 93% 29.93 in - South 10.4 mph - N/A   Unknown
9:54 AM 77.0 °F - 70.0 °F 79% 29.92 in - SSW 13.8 mph 23.0 mph N/A   Unknown
10:54 AM 79.0 °F - 71.1 °F 77% 29.90 in - South 16.1 mph 24.2 mph N/A   Unknown
11:54 AM 82.0 °F 86.3 °F 71.1 °F 69% 29.88 in - South 15.0 mph 25.3 mph N/A   Unknown
12:54 PM 82.9 °F 87.5 °F 71.1 °F 67% 29.86 in - SSW 17.3 mph 32.2 mph N/A   Unknown
1:54 PM 84.0 °F 89.0 °F 71.1 °F 65% 29.83 in - South 11.5 mph 28.8 mph N/A   Unknown
2:54 PM 82.9 °F 87.0 °F 70.0 °F 65% 29.81 in - South 20.7 mph 27.6 mph N/A   Unknown
3:54 PM 82.0 °F 85.5 °F 69.1 °F 65% 29.79 in - SSW 23.0 mph 31.1 mph N/A   Unknown
4:54 PM 78.1 °F - 69.1 °F 74% 29.76 in - South 17.3 mph 29.9 mph N/A   Unknown
5:54 PM 75.0 °F - 68.0 °F 79% 29.77 in - South 19.6 mph 31.1 mph N/A   Unknown
6:54 PM 72.0 °F - 69.1 °F 91% 29.75 in - South 12.7 mph 25.3 mph N/A   Unknown
7:54 PM 71.1 °F - 68.0 °F 90% 29.75 in - South 16.1 mph 27.6 mph N/A   Unknown
8:54 PM 71.1 °F - 68.0 °F 90% 29.74 in - South 18.4 mph 26.5 mph N/A   Unknown
9:54 PM 71.1 °F - 68.0 °F 90% 29.72 in - South 18.4 mph 28.8 mph N/A   Unknown
10:54 PM 69.1 °F - 69.1 °F 100% 29.73 in - SSW 18.4 mph 27.6 mph 0.14 in   Unknown
11:54 PM 66.9 °F - 66.9 °F 100% 29.72 in - North 5.8 mph - 0.28 in   Unknown